Starlink 11327

operational
NORAD ID: 61695 Int'l Des: 2024-195 Owner: SPXS Country: US Constellation: starlink
LEOCIRCULAR

Über Starlink 11327

Beschreibung wird geladen...

Live-Position

3D-Globus wird geladen...

Nächste Überflüge

Höhenverlauf

Altitude vs Time

uPlot chart will show altitude changes over time

Zweizeiliger Elementsatz

1 61695U 24195J 25257.18964945 -.00000341 00000-0 20411-5 0 9997
2 61695 53.1567 176.2431 0001019 101.2598 258.8534 15.69713034 51311
Epoch: 14. Sept. 2025 • Age: 27 hours

Aktueller Status

Höhe 363.4 km
Geschwindigkeit 7.69 km/s
Subsatellitenpunkt -12.28°S, 46.86°E
Startdatum 30. Okt. 2024
Alter 0.8 years
Typ internet

Technische Details

Klassifizierung Payload
Masse 960.00 kg
Trockenmasse 910.00 kg
Gesamtmasse 960.00 kg
Länge 0.30 m
Durchmesser 4.10 m
Spannweite 29.00 m
Form Box + pan
Hersteller SPXS
Bus-Typ Starlink V2MD
Phasenstatus In Orbit
Besitzer/Staat SPXS/US

Große Konstellationen

Loading constellations...